Henderson, KY

5:12 PM CST on November 20, 2017 (GMT -0600)
Henderson City-County

Weather History for KEHR - January, 2014

Change the Weather History Date:

Thursday, January 16, 2014

  Actual Average Record
Temperature  
Mean Temperature 30 °F -  
Max Temperature 42 °F 41 °F 68 °F (1990)
Min Temperature 19 °F 23 °F -7 °F (1972)
Degree Days  
Heating Degree Days 34    
Moisture  
Dew Point 21 °F    
Average Humidity 67    
Maximum Humidity 86    
Minimum Humidity 46    
Precipitation  
Precipitation 0.00 in - - ()
Sea Level Pressure  
Sea Level Pressure 29.88 in    
Wind  
Wind Speed 10 mph (SSW)    
Max Wind Speed 18 mph    
Max Gust Speed 25 mph    
Visibility 10 miles    
Events      
Averages and records for this station are not official NWS values.
T = Trace of Precipitation, MM = Missing Value Source: NWS Daily Summary

Daily Weather History Graph

Daily Weather History Graph

Search for Another Location

Airport or City:

Trip Planner

Search our weather history database for the weather conditions in past years. The results will help you decide how hot, cold, wet, or windy it might be!

Date:

Astronomy

Jan. 16, 2014 Rise Set
Actual Time 7:04 AM CST 4:56 PM CST
Civil Twilight 6:36 AM CST 5:25 PM CST
Nautical Twilight 6:03 AM CST 5:57 PM CST
Astronomical Twilight 5:32 AM CST 6:29 PM CST
Moon 5:46 PM CST (1/16) 6:59 AM CST (1/16)
Length of Visible Light 10h 49m
Length of Day
9h 52m
Full, 100% of the Moon is Illuminated
Jan 16
Full
Jan 23
Last Quarter
Jan 30
New
Feb 6
First Quarter
Feb 14
Full

Hourly Weather History & Observations

Time (CST) Temp. Windchill Dew Point Humidity Pressure Visibility Wind Dir Wind Speed Gust Speed Precip Events Conditions
12:15 AM 19.4 °F 10.4 °F 14.0 °F 80% 30.09 in 10.0 mi South 6.9 mph - N/A   Clear
12:35 AM 19.4 °F 10.4 °F 14.0 °F 80% 30.07 in 10.0 mi South 6.9 mph - N/A   Clear
12:55 AM 19.4 °F 10.4 °F 14.0 °F 80% 30.06 in 10.0 mi South 6.9 mph - N/A   Clear
1:15 AM 21.2 °F 11.7 °F 14.0 °F 74% 30.05 in 10.0 mi South 8.1 mph - N/A   Clear
1:35 AM 21.2 °F 11.7 °F 15.8 °F 80% 30.04 in 10.0 mi South 8.1 mph - N/A   Clear
1:55 AM 21.2 °F 11.7 °F 15.8 °F 80% 30.04 in 10.0 mi South 8.1 mph - N/A   Clear
2:15 AM 23.0 °F 13.9 °F 17.6 °F 80% 30.03 in 10.0 mi South 8.1 mph - N/A   Mostly Cloudy
2:35 AM 23.0 °F 14.7 °F 17.6 °F 80% 30.03 in 10.0 mi South 6.9 mph - N/A   Overcast
2:55 AM 24.8 °F 14.6 °F 17.6 °F 74% 30.02 in 10.0 mi South 10.4 mph - N/A   Overcast
3:15 AM 24.8 °F 14.0 °F 17.6 °F 74% 30.00 in 10.0 mi South 11.5 mph - N/A   Overcast
3:35 AM 24.8 °F 14.0 °F 17.6 °F 74% 30.00 in 10.0 mi SSW 11.5 mph - N/A   Overcast
3:55 AM 24.8 °F 14.0 °F 17.6 °F 74% 30.00 in 10.0 mi SSW 11.5 mph - N/A   Overcast
4:15 AM 24.8 °F 14.6 °F 17.6 °F 74% 29.99 in 10.0 mi SSW 10.4 mph - N/A   Overcast
4:35 AM 24.8 °F 14.6 °F 17.6 °F 74% 29.98 in 10.0 mi SSW 10.4 mph - N/A   Overcast
4:55 AM 24.8 °F 13.4 °F 17.6 °F 74% 29.96 in 10.0 mi South 12.7 mph - N/A   Overcast
5:15 AM 26.6 °F 15.7 °F 17.6 °F 69% 29.95 in 10.0 mi South 12.7 mph 17.3 mph N/A   Overcast
5:35 AM 26.6 °F 16.2 °F 17.6 °F 69% 29.94 in 10.0 mi South 11.5 mph - N/A   Overcast
5:55 AM 26.6 °F 15.2 °F 17.6 °F 69% 29.94 in 10.0 mi SSW 13.8 mph - N/A   Overcast
6:15 AM 26.6 °F 15.7 °F 17.6 °F 69% 29.93 in 10.0 mi South 12.7 mph - N/A   Overcast
6:35 AM 26.6 °F 14.7 °F 17.6 °F 69% 29.93 in 10.0 mi South 15.0 mph 21.9 mph N/A   Overcast
6:55 AM 26.6 °F 16.2 °F 17.6 °F 69% 29.92 in 10.0 mi South 11.5 mph 19.6 mph N/A   Overcast
7:15 AM 26.6 °F 15.2 °F 17.6 °F 69% 29.91 in 10.0 mi South 13.8 mph 21.9 mph N/A   Overcast
7:35 AM 26.6 °F 15.2 °F 17.6 °F 69% 29.91 in 7.0 mi South 13.8 mph 20.7 mph N/A   Overcast
7:55 AM 26.6 °F 15.2 °F 17.6 °F 69% 29.91 in 5.0 mi South 13.8 mph 18.4 mph N/A   Overcast
8:15 AM 28.4 °F 17.0 °F 17.6 °F 64% 29.91 in 10.0 mi South 15.0 mph 20.7 mph N/A   Overcast
8:35 AM 28.4 °F 17.0 °F 17.6 °F 64% 29.90 in 10.0 mi South 15.0 mph 21.9 mph N/A   Overcast
8:55 AM 28.4 °F 19.7 °F 17.6 °F 64% 29.90 in 10.0 mi South 9.2 mph - N/A   Overcast
9:15 AM 28.4 °F 18.5 °F 17.6 °F 64% 29.89 in 10.0 mi South 11.5 mph 17.3 mph N/A   Overcast
9:35 AM 30.2 °F 20.8 °F 17.6 °F 60% 29.89 in 10.0 mi South 11.5 mph 20.7 mph N/A   Overcast
9:55 AM 30.2 °F 20.2 °F 17.6 °F 60% 29.89 in 10.0 mi South 12.7 mph 16.1 mph N/A   Overcast
10:15 AM 32.0 °F 22.1 °F 17.6 °F 55% 29.84 in 10.0 mi South 13.8 mph - N/A   Overcast
10:35 AM 32.0 °F 22.1 °F 17.6 °F 55% 29.83 in 10.0 mi South 13.8 mph 23.0 mph N/A   Overcast
10:55 AM 33.8 °F 23.9 °F 17.6 °F 52% 29.85 in 10.0 mi SSW 15.0 mph - N/A   Overcast
11:15 AM 33.8 °F 25.8 °F 19.4 °F 56% 29.84 in 10.0 mi SW 10.4 mph - N/A   Overcast
11:35 AM 33.8 °F 25.8 °F 19.4 °F 56% 29.82 in 10.0 mi SSW 10.4 mph - N/A   Overcast
11:55 AM 35.6 °F 25.5 °F 19.4 °F 52% 29.79 in 10.0 mi SSW 17.3 mph - N/A   Overcast
12:15 PM 35.6 °F 26.6 °F 19.4 °F 52% 29.77 in 10.0 mi SSW 13.8 mph 19.6 mph N/A   Overcast
12:35 PM 37.4 °F 28.9 °F 21.2 °F 52% 29.76 in 10.0 mi SSW 13.8 mph 20.7 mph N/A   Overcast
12:55 PM 37.4 °F 28.2 °F 21.2 °F 52% 29.75 in 10.0 mi SW 16.1 mph - N/A   Overcast
1:15 PM 39.2 °F 31.2 °F 21.2 °F 49% 29.75 in 10.0 mi SSW 13.8 mph 18.4 mph N/A   Overcast
1:35 PM 42.8 °F 34.5 °F 23.0 °F 46% 29.74 in 10.0 mi SW 18.4 mph 25.3 mph N/A   Scattered Clouds
1:55 PM 39.2 °F 31.2 °F 21.2 °F 49% 29.75 in 10.0 mi SW 13.8 mph - N/A   Mostly Cloudy
2:15 PM 41.0 °F 33.1 °F 23.0 °F 49% 29.74 in 10.0 mi WSW 15.0 mph 18.4 mph N/A   Mostly Cloudy
2:35 PM 41.0 °F 33.5 °F 23.0 °F 49% 29.75 in 10.0 mi SW 13.8 mph 19.6 mph N/A   Mostly Cloudy
2:55 PM 39.2 °F 33.0 °F 24.8 °F 56% 29.76 in 10.0 mi SW 9.2 mph - N/A   Overcast
3:15 PM 39.2 °F 34.2 °F 24.8 °F 56% 29.76 in 10.0 mi SW 6.9 mph - N/A   Overcast
3:35 PM 39.2 °F 33.6 °F 24.8 °F 56% 29.77 in 10.0 mi SW 8.1 mph - N/A   Overcast
3:55 PM 39.2 °F 32.5 °F 24.8 °F 56% 29.78 in 10.0 mi WSW 10.4 mph - N/A   Overcast
4:15 PM 37.4 °F 31.4 °F 24.8 °F 60% 29.79 in 10.0 mi SW 8.1 mph - N/A   Overcast
4:35 PM 37.4 °F 32.1 °F 26.6 °F 65% 29.79 in 10.0 mi SW 6.9 mph - N/A   Overcast
4:55 PM 37.4 °F 31.4 °F 26.6 °F 65% 29.81 in 10.0 mi SW 8.1 mph - N/A   Overcast
5:15 PM 37.4 °F 29.8 °F 26.6 °F 65% 29.81 in 10.0 mi SW 11.5 mph - N/A   Overcast
5:35 PM 37.4 °F 29.8 °F 26.6 °F 65% 29.82 in 10.0 mi SW 11.5 mph - N/A   Overcast
5:55 PM 37.4 °F 30.3 °F 26.6 °F 65% 29.82 in 10.0 mi SSW 10.4 mph - N/A   Overcast
6:15 PM 37.4 °F 30.8 °F 26.6 °F 65% 29.83 in 10.0 mi SW 9.2 mph - N/A   Overcast
6:35 PM 37.4 °F 30.3 °F 26.6 °F 65% 29.83 in 10.0 mi SSW 10.4 mph - N/A   Overcast
6:55 PM 37.4 °F 30.3 °F 26.6 °F 65% 29.83 in 10.0 mi SSW 10.4 mph - N/A   Overcast
7:15 PM 37.4 °F 30.3 °F 26.6 °F 65% 29.84 in 10.0 mi SW 10.4 mph - N/A   Overcast
7:35 PM 37.4 °F 30.8 °F 26.6 °F 65% 29.84 in 10.0 mi SW 9.2 mph - N/A   Overcast
7:55 PM 37.4 °F 32.8 °F 26.6 °F 65% 29.85 in 10.0 mi WSW 5.8 mph - N/A   Overcast
8:15 PM 35.6 °F 31.7 °F 28.4 °F 75% 29.86 in 10.0 mi WNW 4.6 mph - N/A   Overcast
8:35 PM 35.6 °F - 26.6 °F 70% 29.85 in 10.0 mi Calm Calm - N/A   Overcast
8:55 PM 35.6 °F - 26.6 °F 70% 29.85 in 10.0 mi Calm Calm - N/A   Overcast
9:15 PM 33.8 °F - 26.6 °F 75% 29.86 in 10.0 mi Calm Calm - N/A   Overcast
9:35 PM 33.8 °F - 26.6 °F 75% 29.85 in 10.0 mi Calm Calm - N/A   Mostly Cloudy
9:55 PM 30.2 °F - 26.6 °F 86% 29.84 in 10.0 mi Calm Calm - N/A   Clear
10:15 PM 30.2 °F - 24.8 °F 80% 29.84 in 10.0 mi Calm Calm - N/A   Partly Cloudy
10:35 PM 28.4 °F 23.3 °F 24.8 °F 86% 29.83 in 10.0 mi South 4.6 mph - N/A   Scattered Clouds
10:55 PM 30.2 °F 26.7 °F 24.8 °F 80% 29.82 in 10.0 mi South 3.5 mph - N/A   Mostly Cloudy
11:15 PM 28.4 °F - 24.8 °F 86% 29.81 in 10.0 mi Calm Calm - N/A   Mostly Cloudy
11:35 PM 28.4 °F 20.4 °F 24.8 °F 86% 29.81 in 10.0 mi South 8.1 mph - N/A   Partly Cloudy
11:55 PM 30.2 °F 22.6 °F 26.6 °F 86% 29.81 in 10.0 mi South 8.1 mph - N/A   Clear